EW7067 Weather Reports


Display with metric or nautical units.
time (UTC)temp
F
wind
direction
speed
MPH
gust
MPH
rain 1hr
in
rain 24hr
in
rain mn
in
humidity
%
barometer
mb
20260510151335 76 12 2.0 8.0 0.00 0.00 0.00 47 972.3
20260510150829 76 355 2.0 8.0 0.00 0.00 0.00 45 972.2
20260510145816 75 325 1.0 9.0 0.00 0.00 0.00 46 972.3
20260510145310 75 317 1.0 6.0 0.00 0.00 0.00 48 972.2
20260510144804 75 21 0.0 2.0 0.00 0.00 0.00 49 972.2
20260510144258 74 30 0.0 4.0 0.00 0.00 0.00 50 972.2
20260510143246 74 36 1.0 7.0 0.00 0.00 0.00 54 972.2
20260510142740 74 355 1.0 5.0 0.00 0.00 0.00 56 972.1
20260510141728 73 111 0.0 3.0 0.00 0.00 0.00 57 972.2
20260510141223 72 111 1.0 3.0 0.00 0.00 0.00 60 972.2
20260510140718 72 355 1.0 5.0 0.00 0.00 0.00 59 972.1
20260510140210 71 355 1.0 5.0 0.00 0.00 0.00 61 972.2
20260510135702 71 350 0.0 1.0 0.00 0.00 0.00 61 972.2
20260510135200 70 350 1.0 4.0 0.00 0.00 0.00 69 972.3
20260510134703 70 350 0.0 4.0 0.00 0.00 0.00 68 972.3
20260510134158 69 348 0.0 3.0 0.00 0.00 0.00 71 972.2
20260510133656 69 348 0.0 2.0 0.00 0.00 0.00 70 972.1
20260510133154 68 348 0.0 3.0 0.00 0.00 0.00 74 972.1
20260510132654 68 348 0.0 3.0 0.00 0.00 0.00 76 972.1
20260510132154 67 348 0.0 0.0 0.00 0.00 0.00 77 972.2
20260510130649 64 348 0.0 0.0 0.00 0.00 0.00 85 971.9
20260510130149 63 348 0.0 0.0 0.00 0.00 0.00 87 971.9
20260510125648 62 355 0.0 0.0 0.00 0.00 0.00 90 971.9
20260510125148 62 355 0.0 0.0 0.00 0.00 0.00 93 971.8
20260510124645 62 306 0.0 0.0 0.00 0.00 0.00 93 971.8
20260510124149 61 306 0.0 0.0 0.00 0.00 0.00 92 971.8
20260510123644 60 306 0.0 0.0 0.00 0.00 0.00 91 971.8
20260510123144 59 306 0.0 0.0 0.00 0.00 0.00 90 971.8
20260510122644 58 313 0.0 0.0 0.00 0.00 0.00 89 971.8
20260510122140 57 313 0.0 0.0 0.00 0.00 0.00 88 971.7
20260510121640 56 313 0.0 0.0 0.00 0.00 0.00 89 971.7
20260510121138 56 313 0.0 0.0 0.00 0.00 0.00 89 971.6
20260510120638 55 313 0.0 0.0 0.00 0.00 0.00 89 971.5
20260510120136 55 313 0.0 0.0 0.00 0.00 0.00 89 971.3
20260510114636 53 313 0.0 0.0 0.00 0.00 0.00 89 971.3
20260510114134 52 313 0.0 0.0 0.00 0.00 0.00 89 971.1
20260510113633 52 180 0.0 0.0 0.00 0.00 0.00 90 970.9
20260510113132 51 180 0.0 0.0 0.00 0.00 0.00 90 970.7
20260510112631 51 180 0.0 0.0 0.00 0.00 0.00 90 970.7
20260510112129 51 180 0.0 0.0 0.00 0.00 0.00 90 970.6
20260510111123 50 180 0.0 0.0 0.00 0.00 0.00 90 970.5
20260510110624 50 180 0.0 0.0 0.00 0.00 0.00 90 970.5
20260510110124 50 180 0.0 0.0 0.00 0.00 0.00 90 970.4
20260510105625 50 180 0.0 0.0 0.00 0.00 0.00 90 970.3
20260510105123 49 180 0.0 0.0 0.00 0.00 0.00 91 970.2
20260510104624 49 180 0.0 0.0 0.00 0.00 0.00 91 970.2
20260510103624 49 180 0.0 0.0 0.00 0.00 0.00 91 970.0
20260510103124 49 180 0.0 0.0 0.00 0.00 0.00 91 970.0
20260510102619 49 180 0.0 0.0 0.00 0.00 0.00 91 969.9
20260510102119 50 180 0.0 0.0 0.00 0.00 0.00 91 969.8
20260510101120 50 180 0.0 0.0 0.00 0.00 0.00 91 969.6
20260510100620 50 180 0.0 0.0 0.00 0.00 0.00 90 969.5
20260510100119 50 180 0.0 0.0 0.00 0.00 0.00 91 969.5
20260510095620 51 180 0.0 0.0 0.00 0.00 0.00 91 969.4
20260510095119 51 180 0.0 0.0 0.00 0.00 0.00 91 969.4
20260510094619 51 180 0.0 0.0 0.00 0.00 0.00 91 969.3
20260510094115 51 180 0.0 0.0 0.00 0.00 0.00 91 969.3
20260510093616 51 180 0.0 0.0 0.00 0.00 0.00 91 969.3
20260510093116 51 180 0.0 0.0 0.00 0.00 0.00 91 969.3
20260510092615 51 180 0.0 0.0 0.00 0.00 0.00 91 969.3
20260510091616 51 180 0.0 0.0 0.00 0.00 0.00 91 969.1
20260510091115 51 180 0.0 0.0 0.00 0.00 0.00 91 969.1
20260510090116 53 180 0.0 0.0 0.00 0.00 0.00 91 969.0
20260510085615 53 180 0.0 0.0 0.00 0.00 0.00 90 969.0
20260510085115 53 180 0.0 0.0 0.00 0.00 0.00 90 969.0
20260510084613 53 180 0.0 0.0 0.00 0.00 0.00 90 969.0
20260510084112 53 180 0.0 0.0 0.00 0.00 0.00 91 968.9
20260510083611 53 180 0.0 0.0 0.00 0.00 0.00 91 968.9
20260510083112 53 180 0.0 0.0 0.00 0.00 0.00 91 968.8
20260510082111 53 180 0.0 0.0 0.00 0.00 0.00 91 968.7
20260510081109 55 180 0.0 0.0 0.00 0.00 0.00 90 968.6
20260510080607 55 180 0.0 2.0 0.00 0.00 0.00 90 968.5
20260510080105 54 180 0.0 2.0 0.00 0.00 0.00 91 968.4
20260510075100 54 180 0.0 0.0 0.00 0.00 0.00 91 968.2
20260510074557 55 180 0.0 0.0 0.00 0.00 0.00 91 968.2
20260510074050 55 180 0.0 0.0 0.00 0.00 0.00 91 968.3
20260510073545 55 180 0.0 0.0 0.00 0.00 0.00 91 968.2
20260510072533 55 180 0.0 0.0 0.00 0.00 0.00 91 968.2
20260510072027 55 180 0.0 0.0 0.00 0.00 0.00 91 968.2
20260510071015 56 180 0.0 0.0 0.00 0.00 0.00 91 968.1
20260510070509 56 180 0.0 0.0 0.00 0.00 0.00 91 968.2
20260510070004 56 180 0.0 0.0 0.00 0.00 0.00 91 968.1
20260510065457 56 180 0.0 0.0 0.00 0.00 0.00 91 968.1
20260510064444 56 180 0.0 0.0 0.00 0.00 0.00 91 968.1
20260510063433 56 180 0.0 0.0 0.00 0.00 0.00 91 968.2
20260510062927 56 180 0.0 0.0 0.00 0.00 0.00 91 968.2
20260510062421 56 180 0.0 0.0 0.00 0.00 0.00 91 968.1
20260510061914 56 180 0.0 0.0 0.00 0.00 0.00 91 968.1
20260510061408 57 180 0.0 0.0 0.00 0.00 0.00 91 968.2
20260510060903 57 180 0.0 0.0 0.00 0.00 0.00 92 968.4
20260510060357 57 180 0.0 0.0 0.00 0.00 0.00 92 968.4
20260510055851 57 180 0.0 0.0 0.00 0.00 0.00 91 968.4
20260510055345 57 180 0.0 0.0 0.00 0.00 0.00 91 968.4
20260510054839 57 180 0.0 0.0 0.00 0.00 0.00 92 968.5
20260510054333 57 180 0.0 0.0 0.00 0.00 0.00 92 968.5
20260510053828 57 180 0.0 0.0 0.00 0.00 0.00 92 968.4
20260510053320 57 180 0.0 0.0 0.00 0.00 0.00 92 968.4
20260510052814 58 180 0.0 0.0 0.00 0.00 0.00 92 968.4
20260510050751 58 181 0.0 0.0 0.00 0.00 0.00 92 968.5
20260510050245 58 181 0.0 0.0 0.00 0.00 0.00 92 968.5
20260510045739 58 181 0.0 0.0 0.00 0.00 0.00 92 968.6
20260510044728 59 181 0.0 0.0 0.00 0.00 0.00 92 968.6
20260510044221 59 181 0.0 0.0 0.00 0.00 0.00 92 968.5
20260510043714 59 181 0.0 0.0 0.00 0.00 0.00 92 968.4
20260510042703 59 181 0.0 0.0 0.00 0.00 0.00 93 968.5
20260510041651 59 181 0.0 0.0 0.00 0.00 0.00 93 968.6
20260510041145 59 181 0.0 0.0 0.00 0.00 0.00 93 968.5
20260510040638 59 181 0.0 0.0 0.00 0.00 0.00 93 968.4
20260510040133 60 181 0.0 0.0 0.00 0.00 0.00 93 968.5
20260510035121 60 181 0.0 0.0 0.00 0.00 0.00 93 968.5
20260510034615 60 181 0.0 0.0 0.00 0.00 0.00 93 968.4
20260510034108 60 181 0.0 0.0 0.00 0.00 0.00 93 968.4
20260510033602 60 181 0.0 0.0 0.00 0.00 0.00 93 968.4
20260510033056 60 181 0.0 0.0 0.00 0.00 0.00 93 968.5
20260510032550 61 181 0.0 0.0 0.00 0.00 0.00 93 968.4
20260510032045 61 181 0.0 0.0 0.00 0.00 0.00 93 968.6
20260510031538 61 181 0.0 0.0 0.00 0.00 0.00 93 968.6
20260510031032 61 181 0.0 0.0 0.00 0.00 0.00 93 968.6
20260510030526 61 181 0.0 0.0 0.00 0.00 0.00 93 968.5
20260510030021 62 181 0.0 0.0 0.00 0.00 0.00 93 968.5
20260510025515 62 181 0.0 0.0 0.00 0.00 0.00 92 968.6
20260510023957 63 181 0.0 0.0 0.00 0.00 0.00 92 968.4
20260510023451 63 181 0.0 0.0 0.00 0.00 0.00 91 968.4
20260510022946 63 181 0.0 0.0 0.00 0.00 0.00 91 968.3
20260510022438 64 181 0.0 0.0 0.00 0.00 0.00 91 968.3
20260510021933 64 181 0.0 0.0 0.00 0.00 0.00 90 968.2
20260510021427 64 181 0.0 0.0 0.00 0.00 0.00 90 968.2
20260510020921 65 181 0.0 0.0 0.00 0.00 0.00 89 968.1
20260510020414 65 181 0.0 0.0 0.00 0.00 0.00 89 968.2
20260510015908 65 181 0.0 0.0 0.00 0.00 0.00 88 968.0
20260510015403 65 181 0.0 0.0 0.00 0.00 0.00 88 967.8
20260510014857 66 181 0.0 0.0 0.00 0.00 0.00 87 967.8
20260510014351 66 181 0.0 0.0 0.00 0.00 0.00 87 967.7
20260510013844 66 181 0.0 2.0 0.00 0.00 0.00 86 967.6
20260510013339 66 181 0.0 2.0 0.00 0.00 0.00 86 967.6
20260510012832 67 181 0.0 3.0 0.00 0.00 0.00 86 967.6
20260510011821 67 182 0.0 3.0 0.00 0.00 0.00 85 967.5
20260510011315 67 182 1.0 4.0 0.00 0.00 0.00 84 967.4
20260510004745 68 205 1.0 5.0 0.00 0.00 0.00 84 966.9
20260510004239 68 154 0.0 4.0 0.00 0.00 0.00 84 966.8
20260510003733 68 183 0.0 0.0 0.00 0.00 0.00 84 966.7
20260510003227 68 183 0.0 0.0 0.00 0.00 0.00 83 966.6
20260510002721 68 183 0.0 0.0 0.00 0.00 0.00 83 966.5
20260510002215 69 183 0.0 0.0 0.00 0.00 0.00 82 966.5
20260510001708 69 183 0.0 3.0 0.00 0.00 0.00 81 966.4
20260510001203 69 183 1.0 3.0 0.00 0.00 0.00 81 966.3
20260510000658 69 164 0.0 4.0 0.00 0.00 0.00 80 966.3
20260509235651 69 189 1.0 7.0 0.00 0.00 0.00 80 966.2
20260509235151 70 230 1.0 7.0 0.00 0.00 0.00 79 966.0
20260509234149 70 206 1.0 6.0 0.00 0.00 0.00 78 966.0
20260509233649 70 157 1.0 6.0 0.00 0.00 0.00 78 966.0
20260509233149 71 231 1.0 6.0 0.00 0.00 0.00 78 966.1
20260509232647 71 190 1.0 3.0 0.00 0.00 0.00 77 966.1
20260509231643 71 111 0.0 3.0 0.00 0.00 0.00 77 966.2
20260509230639 71 341 0.0 2.0 0.00 0.00 0.00 76 966.0
20260509230136 71 341 1.0 6.0 0.00 0.00 0.00 76 965.8
20260509225635 71 342 2.0 14.0 0.00 0.00 0.00 76 965.8
20260509225135 71 183 3.0 14.0 0.00 0.00 0.00 76 965.8
20260509224635 71 174 2.0 9.0 0.00 0.00 0.00 75 965.7
20260509224133 72 265 1.0 7.0 0.00 0.00 0.00 75 965.6
20260509223633 72 213 2.0 9.0 0.00 0.00 0.00 74 965.6
20260509223134 72 198 3.0 9.0 0.00 0.00 0.00 73 965.6
20260509222635 73 207 1.0 9.0 0.00 0.00 0.00 73 965.4
20260509222129 73 221 0.0 3.0 0.00 0.00 0.00 71 965.4
20260509221632 73 223 1.0 5.0 0.00 0.00 0.00 72 965.3
20260509221129 73 223 1.0 7.0 0.00 0.00 0.00 72 965.3
20260509220629 73 242 2.0 7.0 0.00 0.00 0.00 72 965.2
20260509220130 73 296 2.0 6.0 0.00 0.00 0.00 72 965.2
20260509215627 73 232 2.0 6.0 0.00 0.00 0.00 71 965.2
20260509215127 73 167 2.0 8.0 0.00 0.00 0.00 71 965.3
20260509214626 74 180 2.0 9.0 0.00 0.00 0.00 71 965.3
20260509214128 74 229 1.0 9.0 0.00 0.00 0.00 70 965.2
20260509213625 74 267 1.0 6.0 0.00 0.00 0.00 70 965.2
20260509213122 73 269 2.0 12.0 0.00 0.00 0.00 70 965.2
20260509212623 73 165 4.0 12.0 0.00 0.00 0.00 71 965.2
20260509212122 73 124 4.0 10.0 0.00 0.00 0.00 71 965.1
20260509211621 73 221 5.0 12.0 0.00 0.00 0.00 71 965.2
20260509210113 73 182 5.0 14.0 0.00 0.00 0.00 70 965.0
20260509205612 74 178 3.0 10.0 0.00 0.00 0.00 70 965.1
20260509205113 74 170 3.0 12.0 0.00 0.00 0.00 68 965.0
20260509204612 73 225 5.0 12.0 0.00 0.00 0.00 67 965.0
20260509204114 74 142 4.0 12.0 0.00 0.00 0.00 66 964.9
20260509203613 75 170 2.0 9.0 0.00 0.00 0.00 66 964.9
20260509203113 75 133 3.0 12.0 0.00 0.00 0.00 65 964.8
20260509202612 75 155 5.0 12.0 0.00 0.00 0.00 63 964.8
20260509202113 75 240 4.0 10.0 0.00 0.00 0.00 65 964.8
20260509201109 75 127 2.0 10.0 0.00 0.00 0.00 68 965.0
20260509200109 74 177 5.0 11.0 0.00 0.00 0.00 67 965.2
20260509195608 74 140 5.0 12.0 0.00 0.00 0.00 68 965.2
20260509195109 73 131 5.0 12.0 0.00 0.00 0.00 69 965.1
20260509194610 73 124 4.0 12.0 0.00 0.00 0.00 69 965.0
20260509194109 73 162 3.0 12.0 0.00 0.00 0.00 69 965.0
20260509193610 73 153 4.0 12.0 0.00 0.00 0.00 66 965.1
20260509193110 74 302 6.0 15.0 0.00 0.00 0.00 66 965.2
20260509192609 74 167 6.0 15.0 0.00 0.00 0.00 66 965.3
20260509192109 74 159 4.0 12.0 0.00 0.00 0.00 65 965.3
20260509191608 74 178 2.0 8.0 0.00 0.00 0.00 68 965.4
20260509191109 74 150 2.0 10.0 0.00 0.00 0.00 64 965.5
20260509190609 74 182 3.0 10.0 0.00 0.00 0.00 65 965.6
20260509190109 74 215 4.0 11.0 0.00 0.00 0.00 65 965.6
20260509185610 74 171 4.0 13.0 0.00 0.00 0.00 66 965.6
20260509185111 74 242 2.0 13.0 0.00 0.00 0.00 67 965.6
20260509184610 73 185 3.0 14.0 0.00 0.00 0.00 70 965.5
20260509184110 72 148 5.0 14.0 0.00 0.00 0.00 71 965.5
20260509183609 72 208 4.0 12.0 0.00 0.00 0.00 71 965.6
20260509183109 72 111 4.0 11.0 0.00 0.00 0.00 73 965.6
20260509182608 71 171 4.0 12.0 0.00 0.00 0.00 73 965.7
20260509182108 71 236 4.0 12.0 0.00 0.00 0.00 70 965.7
20260509181106 71 252 4.0 14.0 0.00 0.00 0.00 73 965.8
20260509180606 71 157 5.0 12.0 0.00 0.00 0.00 71 965.9
20260509180105 71 219 3.0 11.0 0.00 0.00 0.00 71 965.9
20260509175606 71 217 3.0 12.0 0.00 0.00 0.00 75 966.1
20260509174603 70 177 4.0 12.0 0.00 0.00 0.00 72 966.3
20260509174103 71 246 4.0 12.0 0.00 0.00 0.00 73 966.4
20260509173602 71 232 4.0 12.0 0.00 0.00 0.00 72 966.4
20260509172558 70 248 2.0 10.0 0.00 0.00 0.00 75 966.4
20260509172059 70 282 3.0 12.0 0.00 0.00 0.00 74 966.5
20260509171558 69 331 4.0 12.0 0.00 0.00 0.00 76 966.4
20260509171059 69 177 4.0 9.0 0.00 0.00 0.00 75 966.5
20260509170556 69 186 2.0 9.0 0.00 0.00 0.00 74 966.6
20260509170056 69 217 2.0 7.0 0.00 0.00 0.00 74 966.7
20260509165558 69 168 2.0 8.0 0.00 0.00 0.00 76 966.7
20260509165055 69 159 3.0 10.0 0.00 0.00 0.00 75 966.8
20260509164554 69 182 3.0 10.0 0.00 0.00 0.00 74 966.7
20260509164053 68 252 3.0 14.0 0.00 0.00 0.00 76 966.9
20260509163553 68 275 3.0 14.0 0.00 0.00 0.00 76 967.1
20260509163050 68 239 3.0 11.0 0.00 0.00 0.00 75 967.2
20260509162550 68 175 4.0 12.0 0.00 0.00 0.00 75 967.2
20260509162051 68 233 4.0 12.0 0.00 0.00 0.00 75 967.3
20260509161045 68 165 4.0 11.0 0.00 0.00 0.00 75 967.4
20260509160539 67 235 4.0 10.0 0.00 0.00 0.00 76 967.6
20260509160033 67 162 3.0 11.0 0.00 0.00 0.00 76 967.6
20260509155527 67 174 2.0 11.0 0.00 0.00 0.00 76 967.6
20260509155022 67 186 3.0 12.0 0.00 0.00 0.00 77 967.6
20260509154515 67 172 5.0 14.0 0.00 0.00 0.00 76 967.6
20260509154009 67 180 6.0 14.0 0.00 0.00 0.00 77 967.5
20260509153503 66 156 4.0 14.0 0.00 0.00 0.00 78 967.4
20260509152957 66 157 3.0 10.0 0.00 0.00 0.00 79 967.4
20260509152451 65 198 2.0 10.0 0.00 0.00 0.00 79 967.5
20260509151946 65 317 1.0 6.0 0.00 0.00 0.00 80 967.6